This demonstration page uses our WeatherBlox Daily Observations layout. Learn more.

Left ArrowRight Arrow

39.92423, -83.80882

Hourly Observations for November 16, 2018

Temp ( °F °C ) Dew Point ( °F °C ) Humidity (%) Winds ( mph kmh ) Pressure ( in mb ) Visibility ( mi km ) Precip ( " mm )
12:42 am 00:42 Cloudy with Mist and Fog 32 undefined 32 undefined 100 100 WSW 15 24 30.00 1016 6 10 0.03 0.76
12:56 am 00:56 Cloudy 32 undefined 31 -0.6 96 96 WSW 14 22 30.00 1016 9 14 0.04 1.02
1:18 am 01:18 Cloudy 32 undefined 30 -1 93 93 W 13 20 30.00 1016 10 16 0.02 0.51
1:56 am 01:56 Cloudy 31 -0.6 31 -0.6 100 100 WSW 9 15 29.99 1016 9 14 0.04 1.02
2:56 am 02:56 Cloudy 31 -0.6 30 -1.1 96 96 WSW 12 19 29.98 1015 10 16 0.03 0.76
3:28 am 03:28 Cloudy with Mist and Fog 30 -1 30 -1 100 100 SW 16 26 30.00 1016 6 10 0.01 0.25
3:56 am 03:56 Cloudy 30 -1.1 30 -1.1 100 100 SW 22 35 29.97 1015 7 11 0.03 0.76
4:11 am 04:11 Cloudy 30 -1 28 -2 93 93 WSW 17 28 30.00 1016 9 14 N/A
4:49 am 04:49 Cloudy with Mist and Fog 30 -1 28 -2 93 93 SW 18 30 30.00 1016 4 6 0.02 0.51
5:26 am 05:26 Cloudy with Mist and Fog 30 -1 28 -2 93 93 SW 15 24 30.00 1016 4 6 0.01 0.25
5:56 am 05:56 Cloudy with Mist and Fog 30 -1.1 29 -1.7 96 96 SW 16 26 29.98 1015 4 6 0.02 0.51
6:31 am 06:31 Cloudy 30 -1 28 -2 93 93 SW 13 20 30.00 1016 8 13 0.01 0.25
6:56 am 06:56 Cloudy 29 -1.7 28 -2.2 96 96 SW 15 24 29.97 1015 9 14 0.02 0.51
7:56 am 07:56 Cloudy 30 -1.1 29 -1.7 96 96 SW 14 22 30.00 1016 7 11 0.02 0.51
8:56 am 08:56 Cloudy 30 -1.1 29 -1.7 96 96 SW 15 24 30.00 1016 9 14 0.02 0.51
9:56 am 09:56 Cloudy 31 -0.6 30 -1.1 96 96 SW 13 20 30.03 1017 8 13 0.01 0.25
10:56 am 10:56 Cloudy 32 undefined 30 -1.1 92 92 SW 12 19 30.01 1016 8 13 0.01 0.25
11:15 am 11:15 Cloudy 32 undefined 30 -1 93 93 WSW 13 20 30.03 1017 8 13 N/A
11:56 am 11:56 Cloudy 33 0.6 31 -0.6 92 92 WSW 14 22 30.00 1016 9 14 0.01 0.25
12:56 pm 12:56 Cloudy with Mist and Fog 33 0.6 32 undefined 96 96 WSW 14 22 30.00 1016 6 10 0.01 0.25
1:56 pm 13:56 Cloudy with Mist and Fog 33 0.6 32 undefined 96 96 WSW 15 24 30.01 1016 6 10 N/A
2:56 pm 14:56 Cloudy with Mist and Fog 34 1.1 33 0.6 97 97 WSW 12 19 30.03 1017 6 10 N/A
3:56 pm 15:56 Cloudy with Mist and Fog 35 1.7 33 0.6 93 93 W 13 20 30.05 1018 6 10 0.01 0.25
4:56 pm 16:56 Cloudy with Mist and Fog 35 1.7 34 1.1 96 96 W 10 17 30.09 1019 6 10 N/A
5:56 pm 17:56 Cloudy 35 1.7 34 1.1 96 96 W 7 11 30.11 1020 7 11 N/A
6:56 pm 18:56 Cloudy 35 1.7 34 1.1 96 96 W 7 11 30.13 1020 7 11 N/A
7:18 pm 19:18 Cloudy 36 2 34 1 93 93 WSW 9 15 30.15 1021 8 13 N/A
7:56 pm 19:56 Cloudy 36 2.2 34 1.1 93 93 WSW 7 11 30.14 1021 7 11 N/A
8:56 pm 20:56 Cloudy with Mist and Fog 35 1.7 35 1.7 100 100 SW 7 11 30.15 1021 5 8 N/A
9:56 pm 21:56 Cloudy with Mist and Fog 35 1.7 35 1.7 100 100 SW 6 9 30.16 1021 5 8 N/A
10:56 pm 22:56 Cloudy with Mist and Fog 35 1.7 35 1.7 100 100 SW 6 9 30.16 1022 6 10 N/A
11:56 pm 23:56 Cloudy with Mist and Fog 35 1.7 35 1.7 100 100 SW 6 9 30.17 1022 5 8 N/A

Powered by AerisWeather